Location: Caoba
(9.7667°N, 67.4833°W)
Time: 05:08:07
(UTC+00:00)

Cosmos 2292 Rocket - Pass Details

Date: 08 September 2024
Orbit: 370 x 1314 km, 83.0° (Epoch: 09 October)

Event Time Altitude Azimuth Distance (km) Brightness Sun altitude
Rises 14:25:34 0° 270° (W) 4,315 7.6 59.5°
Enters shadow 15:10:18 -62° 63° (ENE) 11,709 9.6 70.4°
Exits shadow 15:28:10 -61° 153° (SSE) 11,768 9.6 74.7°
Reaches altitude 10° 23:38:14 10° 13° (NNE) 1,449 5.4 -16.5°
